Location: B�hl
(48.6968°N, 8.1352°E)
Time: 08:32:38
(UTC+00:00)

Cosmos 2333 Rocket - Pass Details

Date: 08 March 2021
Orbit: 837 x 864 km, 70.8° (Epoch: 13 April)

Event Time Altitude Azimuth Distance (km) Brightness Sun altitude
Rises 17:45:56 0° 181° (S) 3,390 5.4 -4.7°
Reaches altitude 10° 17:48:31 10° 173° (S) 2,463 4.6 -5.2°
Maximum altitude 17:53:41 38° 107° (ESE) 1,274 2.7 -6.0°
Drops below altitude 10° 17:58:56 10° 41° (NE) 2,496 4.3 -6.9°
Sets 18:01:33 0° 34° (NE) 3,441 5.0 -7.3°
